Regional Weather Roundup
Issued by NWS

Home | Current Version | Previous Version | Text Only | Print | Product List | Glossary On
Versions: 1 2 3 4 5 6 7 8 9 10 11 12 13 14 15 16 17 18 19 20 21 22 23 24 25 26 27
000
ASUS46 KSEW 201010
RWRWA

WASHINGTON REGIONAL WEATHER ROUNDUP
NATIONAL WEATHER SERVICE SEATTLE WA
300 AM PDT SUN AUG 20 2017

NOTE:"FAIR" INDICATES FEW OR NO CLOUDS BELOW 12,000 FEET WITH NO
SIGNIFICANT WEATHER AND/OR OBSTRUCTIONS TO VISIBILITY.

WAZ507-509-555>559-201100-
SEATTLE, TACOMA, EVERETT, AND VICINITY

CITY           SKY/WX    TMP DP  RH WIND       PRES   REMARKS
EVERETT        FAIR      55  50  83 N7        30.18F
BOEING FIELD   FAIR      60  53  77 CALM      30.16F
RENTON         FAIR      61  52  72 NW8       30.16S
SEATAC AIRPORT FAIR      59  49  69 N10       30.17S
JBLM-MCCHORD   FAIR      52  51  99 CALM      30.16S
PUYALLUP       FAIR      52  52 100 CALM      30.17S
BREMERTON      FAIR      52  48  86 CALM      30.17F
JBLM-FT LEWIS  FAIR      53  51  92 CALM      30.16S
TACOMA NARROWS FAIR      55  50  83 NW5       30.17F
$$

WAZ001-503-506-510-514-515-201100-
NORTH INTERIOR

CITY           SKY/WX    TMP DP  RH WIND       PRES   REMARKS
BELLINGHAM     FAIR      55  52  89 CALM      30.14S
FRIDAY HARBOR  FAIR      48  48 100 CALM      30.16S
EASTSOUND      FAIR      55  50  82 CALM      30.15R
PORT ANGELES   FAIR      52  49  89 NW7       30.18S
EDIZ HOOK      FAIR      54  50  86 W15       30.17S
PORT TOWNSEND  FAIR      48  46  93 CALM      30.18S
NAS WHIDBEY    FAIR      56  49  77 SW6       30.20S
ARLINGTON      FAIR      49  46  90 N7        30.18F
BURLINGTON     PTCLDY    54  50  87 SE6       30.17S
$$

WAZ020-022-039-040-504-511-512-201100-
SOUTHWEST INTERIOR

CITY           SKY/WX    TMP DP  RH WIND       PRES   REMARKS
SHELTON        FAIR      54  50  86 CALM      30.15F
OLYMPIA        FAIR      51  49  92 CALM      30.17S
CHEHALIS       FAIR      52  52 100 CALM      30.17F
KELSO          FAIR      54  50  86 CALM      30.17S
VANCOUVER      FAIR      59  50  72 CALM      30.13F
SCAPPOOSE, OR  FAIR      58  48  69 NW6       30.13F
PORTLAND, OR   FAIR      59  49  69 NW5       30.14S
$$

WAZ021-516-517-201100-
WASHINGTON COAST

CITY           SKY/WX    TMP DP  RH WIND       PRES   REMARKS
FORKS          CLOUDY    52  49  89 CALM      30.21R
HOQUIAM        FAIR      53  49  86 CALM      30.18F
ASTORIA, OR    FAIR      57  52  83 N14       30.18S
$$

WAZ019-023-024-040-567>569-201100-
CASCADE MOUNTAINS AND COLUMBIA GORGE

CITY           SKY/WX    TMP DP  RH WIND       PRES   REMARKS
STAMPEDE PASS  FAIR      48  42  80 VRB6      30.19F
TROUTDALE, OR  FAIR      58  50  75 W3        30.13F
HOOD RIVER, OR FAIR      55  48  76 CALM      30.08S
THE DALLES, OR FAIR      66  53  63 NW15      30.04R
$$

WAZ026-027-041>044-520-521-201100-
EAST SLOPES

CITY           SKY/WX    TMP DP  RH WIND       PRES   REMARKS
OMAK           FAIR      63  38  39 NW9       30.04S
WENATCHEE      FAIR      63  44  50 NW8       30.05S
ELLENSBURG     FAIR      62  41  46 NW21G28   30.06F
YAKIMA         FAIR      55  41  59 SW3       30.06S
SUNNYSIDE ARPT   N/A     47  45  91 CALM      30.04S
YAKIMA TC      FAIR      60  38  44 E9        30.05S
$$

WAZ028-034-035-201100-
COLUMBIA BASIN

CITY           SKY/WX    TMP DP  RH WIND       PRES   REMARKS
EPHRATA        FAIR      66  40  38 VRB7      30.02S
MOSES LAKE     FAIR      61  44  53 CALM      30.03R
PASCO          FAIR      56  47  71 CALM      30.03R
RICHLAND ARPT  FAIR      65  46  49 CALM      30.03R
HERMISTON, OR  FAIR      59  48  67 SW5       30.03R
$$

WAZ036>038-201100-
NORTHEAST WASHINGTON

CITY           SKY/WX    TMP DP  RH WIND       PRES   REMARKS
SPOKANE GEIGER FAIR      60  40  47 SW3       30.06R
SPOKANE FELTS  FAIR      55  41  59 N3        30.06R
FAIRCHILD AFB  FAIR      57  40  52 SW6       30.05S
COEURDALENE,ID FAIR      50  40  68 CALM      30.07R
DEER PARK      FAIR      45  33  63 NE3       30.06R
$$

WAZ029>033-201100-
SOUTHEAST WASHINGTON

CITY           SKY/WX    TMP DP  RH WIND       PRES   REMARKS
PULLMAN        FAIR      49  36  61 CALM      30.10S
LEWISTON, ID   FAIR      61  41  47 CALM      30.05S
WALLA WALLA    FAIR      63  42  46 SE8       30.05R
PENDLETON, OR  FAIR      55  39  54 SE7       30.06R
$$




USA.gov is the U.S. government's official web portal to all federal, state and local government web resources and services.